Temp
51 51 51 51 51 51 45 37 29 46 48 33 30 27 38 46 44 48 45 45 43 39 40 39 41 42 47 52 53 47 48 40 33 39 50 53 49 39 35 27 22 28 24 27
51 51 51 51 51 51 38 31 33 45 44 22 23 36 39 43 42 43 43 41 44 44 41 35 41 43 50 51 51 46 47 36 31 34 43 46 42 42 37 29 30 28 23 27
51 51 51 50 51 51 39 32 24 37 41 42 38 35 34 36 45 43 43 42 41 36 38 44 41 43 49 49 52 50 48 41 36 34 40 42 37 40 38 37 26 28 26 30
50 50 50 50 50 51 39 34 27 34 23 33 33 34 37 35 35 42 43 39 41 37 33 38 40 44 44 48 52 49 47 37 42 47 50 45 43 42 39 34 36 33 31 33
50 50 50 50 50 50 36 28 31 34 31 35 34 34 33 35 36 37 37 36 40 41 36 37 35 41 41 39 47 47 48 39 44 41 49 47 44 45 42 43 38 37 38 32
50 50 50 50 50 46 37 41 41 34 32 31 30 31 36 36 37 39 42 40 37 37 40 42 43 44 44 44 41 42 43 41 37 36 43 43 34 36 41 43 44 44 35 42
50 50 50 50 50 46 37 40 37 34 28 30 32 35 37 36 36 33 40 41 37 43 46 43 45 44 44 44 44 47 40 41 39 34 38 24 42 51 51 47 48 49 47 47
50 49 49 49 49 50 38 37 36 32 29 31 33 36 35 36 37 35 37 41 43 43 39 39 38 37 41 44 46 45 45 41 35 32 31 39 47 50 49 46 46 52 50 50
49 49 49 49 48 49 39 37 38 34 32 28 37 32 34 30 30 34 36 42 41 43 40 39 33 31 35 39 43 51 48 46 38 30 30 30 41 52 57 54 36 53 54 50
49 49 49 49 49 49 40 37 39 39 32 37 36 32 33 37 35 32 35 36 36 41 36 35 32 32 39 34 35 36 36 35 31 25 25 35 49 55 57 38 39 51 53 51
48 48 48 48 49 49 41 37 39 37 31 35 39 41 37 34 35 31 37 34 33 34 30 32 32 34 37 37 42 39 35 32 29 30 28 29 53 53 44 47 50 52 51 50
48 48 48 48 48 49 46 39 41 42 36 35 41 43 46 44 43 38 38 37 36 36 31 31 30 31 37 36 30 44 35 40 35 39 37 48 52 52 53 54 53 51 50 50
48 48 48 48 48 49 46 38 37 40 35 34 35 35 44 48 47 48 35 37 41 38 39 34 33 32 36 31 34 38 45 47 42 42 48 50 54 53 55 54 54 54 53 54
48 48 48 48 48 48 48 40 44 41 37 30 32 46 41 48 47 45 44 42 41 41 39 35 33 32 42 38 40 38 44 47 45 44 50 53 53 54 55 55 57 55 55 56
48 48 47 48 48 48 44 43 41 43 37 31 32 41 47 49 47 44 44 43 40 38 35 35 34 40 42 43 40 38 46 45 41 39 50 50 52 56 56 56 56 55 54 52
47 47 47 48 48 48 42 36 41 46 43 35 29 38 41 46 46 44 41 43 41 39 36 35 39 46 41 37 35 48 51 52 52 51 55 55 57 57 57 57 57 57 55 56
47 47 47 47 48 43 37 34 43 46 45 35 30 30 41 45 44 41 40 42 40 40 37 36 37 40 44 41 38 50 52 54 55 57 57 54 57 55 58 60 60 57 57 57
47 47 47 47 47 46 39 43 46 46 40 39 29 28 34 45 37 36 43 39 39 38 37 36 37 43 42 37 46 52 54 55 56 56 57 59 58 58 58 58 57 56 55 54
47 47 47 44 40 37 40 49 48 45 40 33 33 26 25 43 38 39 40 41 34 38 34 37 37 38 35 44 47 50 54 52 53 57 58 60 56 57 58 56 55 55 53 52
47 43 37 32 37 47 48 43 38 37 38 39 32 34 28 38 37 36 36 38 34 31 36 38 36 34 46 50 51 52 53 53 54 52 51 53 52 55 56 57 56 56 55 52
39 35 33 41 46 41 36 31 30 32 32 35 34 36 31 38 32 31 37 34 35 31 35 33 33 32 42 51 51 53 54 56 55 55 57 57 57 56 55 54 55 54 53 52
40 39 41 42 39 32 30 29 30 30 28 34 33 35 39 37 41 36 35 34 35 32 40 32 30 40 49 49 50 53 55 55 56 56 57 58 57 57 56 55 55 54 54 49
39 36 32 31 32 27 25 21 28 28 32 37 37 33 36 37 37 33 34 31 32 41 35 33 35 47 51 52 52 53 55 54 53 55 56 57 56 56 55 55 55 54 52 50
32 30 26 27 27 29 28 29 31 35 38 40 41 35 33 32 30 30 30 33 36 32 26 32 39 48 50 52 53 54 52 51 52 54 55 55 53 54 54 52 52 46 50 43
30 32 27 28 32 32 35 37 37 39 41 42 38 36 35 31 30 33 33 30 30 32 33 34 42 48 50 51 51 51 51 49 49 52 53 51 51 51 50 51 52 51 44 40
33 33 31 32 30 28 31 36 38 43 41 41 40 34 30 32 31 30 30 30 29 32 37 42 45 48 50 50 50 50 50 51 52 53 53 53 50 48 54 53 52 46 44 39
33 31 35 33 33 34 36 41 42 46 41 31 32 30 30 35 30 28 30 30 34 38 41 44 47 48 49 49 49 49 49 50 50 51 52 52 52 51 50 50 50 48 47 41
MSLP
1030.49 1030.35 1030.12 1029.86 1029.38 1028.59 1028.17 1028.59 1028.10 1026.29 1026.06 1026.99 1027.65 1028.01 1027.08 1025.97 1024.91 1024.07 1023.56 1023.25 1022.72 1022.34 1021.84 1020.82 1019.60 1018.13 1017.13 1016.38 1016.29 1016.28 1017.10 1017.51 1018.36 1018.32 1017.81 1017.91 1018.12 1019.14 1019.85 1021.74 1023.02 1022.85 1022.58 1020.07
1030.66 1030.60 1030.39 1030.16 1029.82 1029.42 1029.74 1029.83 1028.99 1026.99 1026.85 1028.06 1028.39 1027.93 1027.02 1026.07 1025.21 1024.43 1023.96 1023.71 1023.22 1022.64 1022.27 1021.77 1020.24 1019.07 1017.47 1016.97 1016.86 1017.21 1017.18 1017.75 1018.58 1019.13 1018.56 1018.43 1019.00 1019.02 1020.13 1021.13 1021.88 1022.58 1022.49 1020.18
1030.86 1030.78 1030.57 1030.36 1030.10 1029.70 1029.73 1030.28 1029.94 1028.60 1028.07 1028.17 1028.38 1028.13 1027.43 1026.43 1025.32 1024.79 1024.66 1024.34 1023.95 1023.61 1022.39 1021.46 1020.40 1019.33 1018.10 1017.71 1016.99 1017.28 1017.42 1017.36 1016.65 1016.49 1016.19 1016.78 1017.88 1017.57 1019.02 1019.81 1021.49 1021.89 1020.97 1020.10
1030.98 1030.83 1030.67 1030.56 1030.31 1029.98 1030.19 1030.61 1030.75 1030.30 1030.08 1029.18 1029.03 1028.49 1027.65 1026.91 1026.27 1025.52 1025.09 1024.60 1024.57 1024.48 1023.25 1021.67 1020.47 1019.76 1019.08 1018.20 1016.92 1017.19 1017.39 1016.77 1016.02 1015.50 1015.22 1015.64 1015.76 1016.25 1017.52 1018.66 1019.23 1019.90 1019.38 1019.39
1031.05 1030.88 1030.85 1030.79 1030.52 1030.24 1030.68 1031.11 1031.22 1030.85 1030.60 1029.86 1029.32 1028.60 1028.00 1027.51 1026.90 1026.38 1025.43 1025.14 1024.54 1024.22 1023.90 1023.20 1021.65 1020.92 1020.29 1019.45 1018.13 1017.33 1016.92 1016.71 1016.07 1015.93 1015.08 1015.05 1015.12 1015.08 1015.62 1016.77 1017.69 1017.85 1018.08 1018.17
1031.10 1031.07 1031.03 1030.97 1030.83 1030.83 1031.19 1031.05 1031.22 1031.32 1031.00 1030.28 1029.76 1028.98 1028.50 1027.97 1027.40 1026.37 1025.75 1025.30 1024.74 1023.89 1023.43 1023.06 1021.89 1021.11 1020.29 1019.63 1018.96 1017.98 1017.28 1017.09 1016.95 1016.26 1015.36 1014.77 1014.65 1013.76 1014.19 1014.91 1015.13 1015.69 1016.52 1015.78
1031.06 1031.10 1031.09 1031.12 1031.15 1031.30 1031.74 1031.87 1031.92 1031.84 1031.26 1030.61 1029.99 1029.34 1028.73 1028.25 1027.75 1027.32 1025.97 1025.35 1024.81 1023.92 1023.12 1021.97 1020.28 1019.45 1018.46 1018.36 1017.65 1017.90 1017.71 1017.50 1017.04 1016.34 1015.63 1014.70 1012.62 1011.85 1012.01 1012.55 1012.94 1013.67 1013.97 1014.40
1031.01 1031.11 1031.13 1031.17 1031.26 1031.31 1031.79 1032.16 1032.30 1032.15 1031.35 1030.66 1029.98 1029.29 1028.87 1028.37 1027.70 1027.21 1026.33 1025.40 1024.83 1024.07 1023.40 1021.60 1019.75 1018.39 1017.53 1016.70 1016.08 1016.48 1016.98 1017.54 1017.06 1016.62 1016.15 1014.03 1011.87 1010.78 1010.62 1011.27 1011.57 1011.81 1012.45 1013.28
1030.85 1031.04 1031.15 1031.16 1031.27 1031.28 1031.82 1032.09 1032.02 1032.22 1031.76 1030.42 1030.06 1029.75 1029.23 1028.69 1027.97 1027.30 1026.41 1025.64 1024.77 1024.23 1022.85 1021.12 1019.74 1018.46 1017.23 1015.94 1014.78 1014.35 1015.93 1016.77 1016.88 1017.22 1016.39 1014.50 1011.72 1010.29 1009.90 1010.21 1010.79 1010.73 1011.20 1012.34
1030.64 1030.85 1031.01 1031.12 1031.19 1031.24 1031.68 1031.92 1031.74 1031.87 1031.38 1030.21 1029.95 1029.61 1029.18 1028.57 1028.44 1028.02 1027.15 1026.49 1025.59 1024.95 1023.50 1021.76 1020.03 1018.75 1017.90 1015.78 1014.96 1015.29 1015.67 1016.27 1017.03 1017.00 1016.06 1013.72 1011.22 1010.17 1009.95 1010.58 1011.30 1010.54 1010.73 1011.74
1030.36 1030.55 1030.72 1030.89 1030.97 1031.09 1031.49 1031.57 1031.39 1031.63 1031.20 1029.93 1029.32 1029.01 1028.84 1028.78 1028.62 1028.23 1027.33 1027.00 1026.51 1025.74 1025.00 1023.31 1021.41 1019.26 1017.38 1015.65 1014.50 1014.45 1015.19 1015.74 1016.67 1016.56 1015.42 1013.49 1010.91 1010.25 1010.25 1010.35 1010.29 1010.28 1010.63 1011.29
1030.09 1030.33 1030.50 1030.56 1030.68 1030.82 1031.01 1031.36 1031.01 1030.97 1031.12 1029.52 1028.59 1028.36 1028.23 1028.01 1027.87 1027.89 1027.53 1027.10 1027.36 1026.81 1026.57 1025.71 1024.07 1021.91 1018.65 1016.60 1015.17 1014.13 1014.53 1014.28 1014.67 1014.71 1013.35 1011.60 1010.65 1010.16 1009.90 1009.88 1010.07 1010.13 1010.44 1010.99
1029.73 1029.99 1030.18 1030.20 1030.32 1030.42 1030.66 1030.94 1031.01 1030.92 1030.35 1028.67 1027.95 1027.21 1026.04 1026.13 1026.10 1026.42 1027.30 1026.77 1026.57 1026.83 1027.00 1026.44 1025.20 1022.87 1019.90 1017.36 1015.36 1014.12 1013.38 1013.16 1013.39 1013.52 1011.92 1011.18 1010.54 1010.15 1009.88 1009.85 1010.03 1009.98 1010.28 1011.08
1029.33 1029.54 1029.73 1029.86 1029.90 1030.04 1030.18 1030.40 1030.07 1030.46 1030.11 1028.79 1026.58 1025.48 1025.56 1024.68 1024.83 1025.10 1025.48 1025.55 1025.98 1026.20 1026.66 1025.92 1024.76 1023.02 1019.76 1017.62 1016.41 1015.03 1013.04 1012.68 1012.69 1012.44 1011.38 1010.66 1010.35 1010.12 1010.03 1010.10 1010.25 1010.52 1011.02 1011.33
1028.94 1028.98 1029.21 1029.40 1029.49 1029.57 1029.63 1029.53 1029.35 1029.43 1029.89 1028.16 1026.63 1025.58 1023.93 1023.39 1023.37 1023.70 1024.14 1024.83 1025.36 1025.73 1025.82 1025.43 1024.25 1022.09 1019.73 1017.70 1016.34 1014.43 1012.32 1011.75 1011.88 1011.68 1010.79 1010.36 1009.97 1009.86 1010.07 1010.36 1010.61 1011.03 1011.45 1012.64
1028.41 1028.54 1028.79 1028.98 1028.98 1029.11 1029.32 1028.49 1027.21 1027.58 1028.40 1028.34 1026.92 1024.90 1023.28 1022.46 1022.37 1022.78 1023.09 1023.52 1024.42 1024.84 1024.97 1024.56 1023.36 1021.27 1020.50 1018.11 1016.03 1012.95 1012.03 1011.29 1010.45 1010.34 1009.86 1009.83 1009.40 1009.57 1010.13 1010.40 1010.78 1011.36 1012.04 1012.56
1027.92 1028.08 1028.28 1028.40 1028.34 1028.56 1028.58 1027.75 1026.76 1027.03 1027.64 1027.72 1026.82 1024.77 1022.30 1021.14 1021.63 1022.23 1022.76 1023.01 1023.66 1024.05 1024.03 1023.64 1022.59 1020.92 1019.49 1017.40 1015.76 1012.41 1011.77 1011.33 1010.84 1009.95 1009.79 1009.79 1009.64 1009.84 1010.11 1010.42 1010.88 1011.49 1012.23 1013.01
1027.44 1027.57 1027.66 1027.55 1027.42 1027.36 1026.70 1026.45 1026.19 1027.32 1027.25 1027.05 1026.32 1024.61 1022.80 1021.30 1021.65 1022.03 1022.30 1022.79 1023.06 1023.17 1023.02 1022.59 1021.20 1019.48 1018.37 1016.26 1014.21 1012.78 1012.13 1011.45 1010.59 1010.28 1009.68 1009.56 1009.63 1009.84 1010.28 1010.61 1011.28 1012.00 1012.79 1013.58
1027.00 1027.00 1026.89 1026.68 1026.39 1025.71 1024.38 1024.25 1024.64 1026.05 1026.74 1025.80 1024.94 1024.20 1022.67 1021.17 1021.56 1021.73 1022.06 1022.19 1022.38 1022.41 1021.90 1021.03 1020.31 1018.27 1016.27 1014.11 1013.25 1012.72 1012.06 1011.80 1011.12 1010.47 1010.20 1009.82 1010.00 1010.23 1010.48 1010.89 1011.56 1012.18 1012.99 1013.79
1026.56 1026.71 1026.65 1025.41 1024.49 1023.82 1023.78 1024.11 1024.39 1024.81 1024.90 1024.42 1023.61 1022.90 1022.28 1021.60 1021.95 1022.02 1022.10 1021.61 1021.58 1021.16 1019.83 1019.27 1018.41 1016.66 1014.09 1012.81 1012.14 1011.67 1011.36 1011.11 1011.01 1010.87 1010.50 1010.30 1010.41 1010.67 1010.71 1010.97 1011.41 1011.96 1012.66 1013.57
1026.30 1026.13 1025.41 1024.16 1023.49 1023.65 1023.79 1023.89 1024.15 1023.95 1023.67 1023.20 1022.15 1021.67 1021.62 1021.12 1021.60 1021.87 1022.23 1020.97 1020.25 1019.67 1018.12 1018.24 1016.88 1014.72 1012.32 1010.91 1010.66 1010.59 1010.43 1010.53 1010.44 1010.41 1010.24 1010.12 1010.20 1010.38 1010.71 1011.07 1011.39 1011.79 1012.52 1013.29
1025.44 1025.65 1025.04 1023.74 1023.25 1023.45 1023.60 1023.40 1023.35 1022.82 1022.09 1021.29 1020.74 1020.27 1020.50 1020.68 1020.67 1021.68 1021.35 1020.03 1019.49 1017.77 1017.26 1017.10 1015.41 1012.35 1010.33 1009.81 1009.66 1009.55 1009.61 1009.66 1009.73 1009.89 1009.94 1009.78 1009.83 1010.00 1010.42 1010.74 1011.13 1011.53 1011.98 1012.88
1025.47 1025.36 1024.54 1022.99 1022.64 1022.44 1022.25 1021.91 1021.70 1021.06 1020.05 1019.31 1019.19 1019.58 1019.95 1020.60 1020.67 1021.37 1021.15 1019.98 1018.31 1017.37 1016.60 1015.72 1013.71 1010.89 1009.68 1008.92 1008.75 1008.83 1008.97 1009.26 1009.56 1009.67 1009.53 1009.59 1009.72 1009.83 1010.10 1010.49 1010.72 1011.23 1011.92 1012.59
1024.89 1024.03 1022.92 1021.91 1021.13 1020.47 1019.76 1019.08 1018.46 1018.10 1017.66 1017.66 1018.13 1019.04 1019.52 1020.20 1020.85 1020.92 1020.89 1019.55 1018.49 1017.07 1016.06 1014.40 1012.16 1010.31 1009.30 1008.98 1008.81 1008.77 1008.67 1008.74 1008.85 1008.90 1008.95 1009.28 1009.57 1009.78 1009.94 1010.20 1010.52 1011.11 1011.83 1012.64
1023.92 1022.56 1020.81 1019.86 1018.76 1018.19 1017.56 1017.39 1017.26 1016.65 1016.51 1016.92 1017.69 1018.38 1019.11 1019.81 1020.38 1020.44 1020.13 1019.38 1017.88 1016.33 1014.53 1013.21 1012.07 1011.01 1010.02 1009.38 1008.96 1008.81 1008.73 1008.70 1008.59 1008.39 1008.59 1008.72 1009.00 1009.39 1009.70 1009.93 1010.20 1010.87 1011.65 1012.42
1022.37 1020.89 1019.24 1018.23 1018.17 1017.39 1016.86 1016.39 1016.14 1015.81 1016.23 1016.63 1017.09 1018.00 1018.73 1018.98 1019.11 1019.61 1019.10 1018.35 1016.54 1014.95 1013.95 1012.79 1011.81 1010.98 1010.39 1010.03 1009.56 1009.29 1009.21 1009.02 1008.67 1008.37 1008.23 1008.18 1008.57 1009.00 1009.13 1009.49 1009.95 1010.49 1011.26 1012.00
1019.81 1018.76 1018.04 1017.69 1017.18 1016.07 1015.29 1014.91 1014.72 1014.84 1015.74 1016.47 1016.79 1017.27 1017.59 1017.75 1017.93 1017.98 1017.46 1016.56 1014.74 1013.59 1012.98 1012.49 1011.50 1010.91 1010.43 1010.24 1010.02 1009.83 1009.63 1009.33 1009.07 1008.78 1008.63 1008.54 1008.46 1008.60 1008.95 1009.31 1009.46 1009.90 1010.28 1011.08
Wind_Speed
9 11 13 14 17 20 8 2 3 5 4 5 2 2 3 6 10 10 4 5 8 10 9 8 5 6 7 16 11 4 3 6 2 2 2 4 3 5 7 6 5 1 5 9
10 11 12 13 14 14 2 2 3 5 5 3 3 5 6 4 5 6 5 4 5 11 9 6 7 5 9 10 6 3 2 1 5 1 4 5 8 5 3 4 3 5 7 8
9 10 11 12 12 14 4 3 4 4 3 1 3 3 4 6 6 6 5 4 10 12 7 10 8 8 7 15 6 2 10 6 8 9 6 7 8 8 6 6 4 5 8 3
8 8 9 10 10 12 4 3 2 1 3 3 5 3 3 5 9 3 4 4 10 7 6 7 2 6 10 13 5 1 4 4 2 3 5 7 6 7 12 10 6 7 5 10
6 8 8 9 10 10 4 3 3 4 3 4 4 4 3 8 10 3 5 6 12 9 8 14 16 11 4 5 8 4 4 5 5 12 6 8 5 10 13 14 4 6 5 7
4 7 6 7 9 6 2 2 2 3 4 4 2 3 8 11 8 6 5 11 7 11 7 14 17 16 16 14 11 4 4 3 5 7 2 3 7 9 13 9 9 13 9 10
4 5 5 4 5 5 2 2 2 1 4 2 3 9 10 9 7 6 9 6 3 8 14 18 16 17 19 15 18 11 5 5 4 3 3 2 10 4 9 16 10 13 5 8
3 3 4 3 3 3 3 1 2 1 4 3 8 9 7 8 11 4 9 3 5 10 8 5 6 3 4 9 14 14 13 3 1 4 3 6 8 4 5 7 7 17 17 9
2 2 4 4 3 2 3 2 2 1 4 4 4 5 5 7 4 6 5 8 8 7 4 4 3 1 4 7 4 11 10 6 5 2 4 6 7 3 3 4 5 4 16 10
3 3 3 5 5 5 1 2 2 2 3 7 4 3 4 4 3 5 7 10 9 5 5 3 3 1 4 5 7 5 4 4 5 2 2 9 7 3 2 4 8 3 9 9
6 5 5 7 8 8 1 3 2 4 3 8 9 10 11 6 5 5 6 5 3 2 7 5 6 2 6 3 3 7 5 6 4 2 1 7 3 2 2 7 3 1 2 8
7 7 7 8 9 10 4 4 2 3 4 6 6 11 13 12 15 8 3 3 2 2 2 4 5 5 6 3 3 1 2 7 6 8 8 6 4 5 1 4 2 2 1 6
9 8 9 10 10 11 8 3 2 2 4 7 7 11 18 15 17 14 6 2 4 3 2 2 3 8 4 4 4 2 1 4 3 3 4 6 5 1 2 2 3 3 5 14
10 10 10 11 11 12 11 3 3 3 3 5 6 4 7 5 10 14 15 12 2 4 3 3 4 5 5 4 5 4 5 5 4 4 6 3 1 4 5 2 6 8 8 14
11 11 11 12 12 13 8 4 5 7 5 4 6 13 20 16 13 11 12 11 6 3 3 4 4 6 4 4 3 5 4 6 5 6 7 4 6 8 4 5 5 7 12 7
11 11 12 13 12 13 3 4 6 11 8 4 5 5 5 8 6 5 7 10 4 3 3 3 4 9 5 5 4 6 5 3 5 4 4 4 3 6 5 6 5 6 8 11
11 12 13 14 15 7 5 5 1 6 8 3 4 5 5 5 4 2 3 5 3 3 3 4 5 7 4 4 4 7 12 8 8 5 4 3 1 4 7 7 6 8 8 9
11 12 14 16 17 15 11 12 23 1 3 3 4 6 5 4 2 2 3 3 3 4 3 3 4 3 5 6 10 17 12 12 7 6 1 4 3 5 5 5 5 6 8 8
11 12 16 10 5 5 4 17 20 8 6 4 4 3 4 0 2 2 2 3 3 3 4 5 3 4 7 7 8 10 11 6 7 7 4 4 4 6 6 6 7 7 7 8
9 4 3 4 5 7 7 3 4 4 3 4 4 4 5 3 3 0 2 3 4 3 8 3 5 7 12 10 11 9 10 6 5 5 4 2 2 4 4 7 8 9 9 9
2 3 4 4 3 1 2 3 3 4 4 5 5 8 3 2 4 4 4 3 3 4 4 7 4 5 7 17 20 14 13 11 9 7 8 7 6 6 6 5 8 8 8 9
3 2 5 3 3 2 4 4 3 5 6 4 4 5 7 3 4 2 3 4 4 4 5 3 4 7 9 6 12 17 17 14 14 8 9 7 8 8 7 7 7 8 9 8
0 3 4 4 4 6 7 9 5 6 5 5 5 3 5 2 3 1 1 4 3 4 3 4 7 6 7 7 6 9 12 11 8 8 7 7 6 5 7 7 7 7 7 8
4 5 6 6 6 7 7 6 6 7 5 8 7 3 4 3 3 3 2 4 3 3 2 6 4 8 7 7 5 2 6 9 11 12 11 9 8 8 6 6 5 6 8 8
5 5 7 8 6 4 5 5 2 4 4 5 4 3 3 2 4 3 1 3 4 5 5 3 4 7 7 6 5 6 6 6 7 7 8 9 8 7 8 7 7 7 5 9
5 7 5 4 4 4 3 5 8 5 4 2 3 4 3 3 4 4 7 4 5 4 4 4 5 6 6 6 6 7 6 6 6 5 5 7 7 9 10 7 8 8 9 10
8 7 6 5 4 6 5 6 7 5 6 4 3 6 8 2 3 4 5 6 6 4 4 4 5 5 8 7 6 7 7 6 6 6 6 4 5 5 5 7 7 8 9 10
Wind_Direction
11 10 9 5 359 347 36 26 45 290 40 45 50 109 212 304 305 305 293 325 285 270 339 315 291 283 325 357 320 315 297 101 57 351 323 306 306 250 144 137 243 80 136 274
16 8 6 2 359 15 2 18 275 321 75 86 335 314 298 261 323 324 330 286 276 296 302 304 290 301 310 338 359 190 254 153 100 256 335 2 260 202 118 126 77 182 140 261
4 0 4 1 355 357 62 44 10 326 30 246 11 342 289 324 302 294 329 337 19 354 305 274 269 285 306 325 283 53 63 228 164 195 178 161 212 172 178 134 131 169 219 258
4 0 7 2 360 351 75 41 289 227 316 350 329 318 268 334 357 349 320 342 1 352 296 305 299 329 335 316 293 171 127 275 173 245 255 188 213 178 182 197 177 180 228 202
356 2 4 4 6 358 69 81 36 352 296 298 342 341 305 18 349 281 311 309 315 313 296 290 296 317 331 283 340 257 167 278 349 301 220 222 230 212 197 207 183 264 152 250
336 352 355 2 10 41 34 7 351 96 295 316 345 262 358 329 353 305 276 309 317 306 319 316 291 277 269 258 268 305 312 182 190 227 357 351 327 223 190 189 196 192 197 215
335 349 352 6 13 74 111 16 38 331 280 295 321 323 316 340 345 281 298 295 295 300 321 296 259 248 248 230 235 225 261 274 238 194 46 337 238 215 189 205 200 200 173 181
314 339 349 349 346 26 96 319 74 288 273 286 305 304 324 327 314 272 285 302 259 321 291 274 292 283 179 227 226 214 208 240 304 135 222 290 297 318 157 167 252 203 212 185
260 290 318 311 294 304 95 225 167 162 302 241 350 322 307 294 314 313 278 307 304 330 260 271 255 275 292 191 263 192 197 210 151 133 169 240 244 282 56 93 285 332 200 181
225 250 301 302 278 279 125 259 153 261 256 269 267 284 321 313 355 287 319 329 343 4 320 277 270 224 253 219 162 164 118 79 141 128 201 286 255 279 21 102 238 330 186 179
230 248 265 292 275 268 181 253 208 166 250 267 258 261 264 294 276 268 336 338 316 335 351 337 333 268 246 299 187 165 146 134 181 80 83 277 242 16 194 219 259 287 199 173
228 243 260 281 263 257 233 263 240 193 231 265 304 271 257 244 248 259 234 284 314 282 348 360 315 299 302 323 252 105 148 176 181 178 215 245 273 205 184 175 183 316 271 135
231 243 262 270 262 259 247 231 209 266 262 276 237 249 248 233 231 215 234 224 185 177 179 238 279 278 299 288 276 196 73 150 167 89 265 234 213 255 80 67 22 328 131 132
232 244 265 268 261 265 261 230 221 214 278 278 279 257 259 271 230 221 216 236 146 132 181 225 256 265 270 298 290 276 209 133 171 268 294 30 240 210 176 83 55 86 83 140
235 248 268 265 263 271 281 241 212 209 225 289 301 307 279 257 250 223 201 194 183 174 192 211 252 269 259 259 280 261 214 183 161 216 232 171 239 198 175 133 95 128 118 108
238 256 265 265 267 274 289 272 232 204 189 261 269 279 280 248 214 225 198 185 157 165 176 214 255 251 252 283 280 282 297 283 182 222 223 221 310 164 153 146 127 133 130 139
242 260 263 264 266 258 217 226 174 196 171 248 275 274 260 255 161 137 96 146 154 161 202 217 235 260 254 234 235 268 342 334 305 266 130 58 85 170 164 147 146 131 129 140
252 263 267 268 267 271 248 231 260 179 238 213 242 263 318 170 158 148 137 156 162 189 208 253 245 250 216 253 226 274 308 312 312 261 48 166 145 98 144 120 123 127 133 133
260 271 283 280 228 225 228 207 219 181 210 213 226 205 254 162 134 108 152 150 203 185 223 225 199 235 231 229 237 247 259 258 307 308 264 108 111 164 148 133 157 153 158 147
265 274 241 250 222 231 128 130 165 158 214 235 230 203 237 121 37 114 246 189 209 231 217 206 206 249 255 239 232 246 258 242 296 303 281 173 201 202 182 177 184 178 174 157
171 228 232 255 170 80 128 174 183 182 203 212 228 204 195 259 176 180 199 249 215 235 211 176 247 263 238 225 227 231 239 244 244 242 241 219 205 196 207 218 198 185 176 173
201 340 270 246 204 197 179 181 180 232 218 201 204 213 179 210 128 106 246 261 192 263 141 161 257 252 256 244 225 231 230 235 239 224 252 241 207 204 202 203 196 194 188 164
353 234 244 188 177 198 189 179 197 207 203 200 184 185 142 86 68 146 251 271 245 338 227 221 233 264 292 271 218 228 227 228 222 228 225 218 227 203 182 198 208 193 186 169
219 225 238 203 175 220 194 201 180 219 185 176 170 134 141 147 119 146 225 264 267 263 230 235 254 252 296 324 343 184 237 220 226 233 233 213 217 221 199 202 210 183 186 178
232 229 235 207 224 222 213 215 217 231 164 150 107 79 109 137 116 196 246 272 250 238 246 252 295 311 319 336 354 0 338 294 242 226 209 215 211 205 216 211 197 194 174 156
236 233 252 236 166 260 231 206 220 196 146 86 86 125 127 198 158 166 211 231 232 250 247 261 287 316 338 342 360 1 357 355 326 280 234 229 209 213 221 203 199 189 176 171
219 217 232 235 278 237 215 197 212 158 142 187 151 155 201 124 177 196 184 219 233 229 285 278 271 312 325 330 348 353 339 346 351 349 345 292 265 243 214 208 210 194 185 186